sat.trackr.live / text

‹ back to catalog

STARLINK-30586

NORAD 58084 · 2023-160K

PAYLOAD ACTIVE UNKNOWN

§ Identity

Operator
Country
US
Launch date
2023-10-18
Launch site
AFETR
Launch vehicle
Mass (kg)
RCS (m²)

Purposes: comms

External: N2YO · Heavens-Above · Gunter

§ Orbital elements

Epoch: 2026-09-20T22:05:05.301600Z

Period
94.27 min
Inclination
43.0015°
Eccentricity
0.0000991
Mean motion
15.27578012 rev/d
Perigee alt
482.4 km
Apogee alt
483.7 km
Semi-major
6,861.2 km
B*
1.1372e-5
RAAN
58.7446°
Arg perigee
268.3656°
Mean anomaly
91.7082°
Rev number
16,276

§ Raw data

STARLINK-305861 58084U 23160K   26263.92020025  .00000051  00000+0  11372-4 0  99992 58084  43.0015  58.7446 0000991 268.3656  91.7082 15.27578012162766

JSON: /api/v1/satellites/58084 · /tle

For live sub-satellite position, see the globe view (requires WebGL).

§ Visibility from observer

Set your observer location to see the next 7 days of passes ≥ 10°. The values pass through the URL so the page stays shareable.

No JS? Fill the form by hand. The geolocation button needs JavaScript.